Harbor Springs, MI

9:36 AM EDT on June 22, 2017 (GMT -0400)
Harbor Springs

Weather History for KMGN - November, 2012

Change the Weather History Date:

Saturday, November 10, 2012

  Actual Average (KPLN) Record (KPLN)
Temperature  
Mean Temperature 44 °F -  
Max Temperature 47 °F 43 °F 64 °F (1999)
Min Temperature 40 °F 30 °F 12 °F (1956)
Degree Days  
Heating Degree Days 22    
Moisture  
Dew Point 40 °F    
Average Humidity 91    
Maximum Humidity 96    
Minimum Humidity 83    
Precipitation  
Precipitation 0.00 in - - ()
Sea Level Pressure  
Sea Level Pressure 30.04 in    
Wind  
Wind Speed 10 mph (ENE)    
Max Wind Speed 17 mph    
Max Gust Speed 26 mph    
Visibility 6 miles    
Events Rain    
Averages and records for this station are not official NWS values.
T = Trace of Precipitation, MM = Missing Value Source: NWS Daily Summary

Daily Weather History Graph

Daily Weather History Graph

Search for Another Location

Airport or City:

Trip Planner

Search our weather history database for the weather conditions in past years. The results will help you decide how hot, cold, wet, or windy it might be!

Date:

Astronomy

Nov. 10, 2012 Rise Set
Actual Time 7:32 AM EST 5:14 PM EST
Civil Twilight 7:00 AM EST 5:46 PM EST
Nautical Twilight 6:25 AM EST 6:21 PM EST
Astronomical Twilight 5:50 AM EST 6:56 PM EST
Moon 3:26 AM EST (11/10) 3:09 PM EST (11/10)
Length of Visible Light 10h 45m
Length of Day
9h 42m
Waning Crescent, 14% of the Moon is Illuminated
Nov 10
Waning Crescent
Nov 13
New
Nov 20
First Quarter
Nov 28
Full
Dec 6
Last Quarter

Hourly Weather History & Observations

Time (EST) Temp. Windchill Dew Point Humidity Pressure Visibility Wind Dir Wind Speed Gust Speed Precip Events Conditions
12:15 AM 42.1 °F 39.2 °F 37.4 °F 83% 30.14 in 10.0 mi ENE 4.6 mph - N/A   Overcast
12:34 AM 41.9 °F 39.0 °F 37.4 °F 84% 30.14 in 10.0 mi ENE 4.6 mph - N/A   Overcast
12:55 AM 41.9 °F 40.0 °F 37.6 °F 85% 30.14 in 10.0 mi ENE 3.5 mph - N/A   Overcast
1:15 AM 42.1 °F 40.2 °F 37.9 °F 85% 30.14 in 10.0 mi ENE 3.5 mph - N/A   Overcast
1:34 AM 42.8 °F 41.1 °F 38.7 °F 85% 30.14 in 10.0 mi ENE 3.5 mph - N/A   Overcast
1:55 AM 42.8 °F 38.6 °F 38.8 °F 86% 30.14 in 10.0 mi ENE 6.9 mph - N/A   Overcast
2:15 AM 42.8 °F 38.6 °F 39.0 °F 86% 30.14 in 10.0 mi ENE 6.9 mph - N/A   Overcast
2:34 AM 42.8 °F 37.5 °F 39.0 °F 86% 30.14 in 10.0 mi ENE 9.2 mph - N/A   Overcast
2:55 AM 42.8 °F 38.6 °F 39.2 °F 87% 30.15 in 10.0 mi ENE 6.9 mph - N/A   Overcast
3:15 AM 42.8 °F 38.0 °F 39.4 °F 88% 30.15 in 10.0 mi ENE 8.1 mph - N/A   Overcast
3:34 AM 42.8 °F 37.0 °F 39.6 °F 88% 30.14 in 10.0 mi ENE 10.4 mph - N/A   Overcast
3:55 AM 42.8 °F 35.8 °F 39.6 °F 88% 30.14 in 10.0 mi East 13.8 mph 19.6 mph N/A   Overcast
4:15 AM 42.8 °F 36.2 °F 39.4 °F 88% 30.14 in 10.0 mi ENE 12.7 mph - N/A   Overcast
4:35 AM 42.8 °F 36.2 °F 39.4 °F 88% 30.14 in 10.0 mi East 12.7 mph - N/A   Overcast
4:55 AM 42.8 °F 35.4 °F 38.8 °F 86% 30.14 in 10.0 mi ENE 15.0 mph 20.7 mph N/A   Overcast
5:14 AM 42.3 °F 34.8 °F 38.3 °F 86% 30.13 in 10.0 mi ENE 15.0 mph 20.7 mph N/A   Overcast
5:35 AM 42.1 °F 35.2 °F 38.3 °F 86% 30.13 in 10.0 mi ENE 12.7 mph 23.0 mph N/A   Overcast
5:54 AM 41.9 °F 35.0 °F 37.9 °F 86% 30.14 in 10.0 mi East 12.7 mph 18.4 mph N/A   Overcast
6:15 AM 41.4 °F 33.6 °F 37.8 °F 87% 30.13 in 10.0 mi ENE 15.0 mph 20.7 mph N/A   Overcast
6:35 AM 41.4 °F 34.0 °F 38.3 °F 89% 30.13 in 10.0 mi ENE 13.8 mph 20.7 mph N/A   Overcast
6:54 AM 41.4 °F 34.3 °F 38.5 °F 89% 30.13 in 10.0 mi ENE 12.7 mph 19.6 mph N/A   Overcast
7:35 AM 41.0 °F 32.5 °F 37.9 °F 89% 30.12 in 10.0 mi ENE 17.3 mph - N/A   Overcast
7:54 AM 41.4 °F 33.6 °F 38.1 °F 88% 30.12 in 10.0 mi East 15.0 mph 19.6 mph N/A   Overcast
8:15 AM 41.4 °F 33.0 °F 37.9 °F 88% 30.12 in 10.0 mi East 17.3 mph 20.7 mph N/A   Overcast
8:35 AM 41.2 °F 33.7 °F 37.8 °F 88% 30.12 in 10.0 mi East 13.8 mph 21.9 mph N/A   Overcast
8:54 AM 41.0 °F 33.5 °F 37.8 °F 88% 30.12 in 7.0 mi East 13.8 mph 21.9 mph N/A   Overcast
9:15 AM 41.0 °F 34.7 °F 38.3 °F 90% 30.12 in 5.0 mi East 10.4 mph 21.9 mph N/A Rain Light Rain
9:55 AM 40.1 °F 33.2 °F 38.3 °F 93% 30.14 in 4.0 mi ENE 11.5 mph - N/A Rain Rain
10:15 AM 40.1 °F 32.4 °F 38.5 °F 94% 30.12 in 4.0 mi East 13.8 mph 19.6 mph N/A Rain Rain
10:34 AM 40.1 °F 33.6 °F 38.5 °F 94% 30.12 in 4.0 mi East 10.4 mph - N/A Rain Light Rain
10:55 AM 40.1 °F 32.4 °F 38.5 °F 94% 30.12 in 5.0 mi ENE 13.8 mph - N/A   Drizzle
11:15 AM 40.3 °F 32.2 °F 38.5 °F 93% 30.11 in 7.0 mi ENE 15.0 mph 20.7 mph N/A Rain Light Rain
11:34 AM 40.1 °F 32.0 °F 38.3 °F 93% 30.09 in 5.0 mi East 15.0 mph 23.0 mph N/A Rain Light Rain
11:55 AM 40.1 °F 31.6 °F 38.3 °F 93% 30.08 in 7.0 mi East 16.1 mph 20.7 mph N/A   Overcast
12:15 PM 40.1 °F 32.7 °F 38.5 °F 94% 30.07 in 10.0 mi ENE 12.7 mph 20.7 mph N/A   Overcast
12:34 PM 40.3 °F 31.6 °F 38.5 °F 93% 30.05 in 10.0 mi ENE 17.3 mph 20.7 mph N/A   Overcast
12:55 PM 40.6 °F 33.4 °F 38.8 °F 93% 30.05 in 10.0 mi ENE 12.7 mph 19.6 mph N/A   Drizzle
1:15 PM 40.3 °F 33.0 °F 38.5 °F 93% 30.05 in 7.0 mi ENE 12.7 mph 20.7 mph N/A Rain Light Rain
1:34 PM 40.5 °F 31.8 °F 38.8 °F 94% 30.03 in 5.0 mi ENE 17.3 mph 20.7 mph N/A Rain Light Rain
1:55 PM 40.5 °F 32.5 °F 38.8 °F 94% 30.02 in 10.0 mi ENE 15.0 mph 18.4 mph N/A   Overcast
2:14 PM 40.5 °F 32.1 °F 38.8 °F 94% 30.00 in 10.0 mi ENE 16.1 mph 25.3 mph N/A   Overcast
2:35 PM 40.8 °F 33.3 °F 39.0 °F 93% 30.00 in 10.0 mi ENE 13.8 mph - N/A Rain Rain
2:55 PM 40.3 °F 31.9 °F 38.7 °F 94% 29.99 in 2.5 mi ENE 16.1 mph - N/A Rain Light Rain
3:14 PM 40.3 °F 31.6 °F 39.0 °F 95% 29.97 in 7.0 mi East 17.3 mph 26.5 mph N/A Rain Rain
3:35 PM 40.8 °F 32.6 °F 39.4 °F 95% 29.97 in 7.0 mi East 16.1 mph 21.9 mph N/A   Overcast
3:55 PM 41.4 °F 33.6 °F 40.1 °F 95% 29.97 in 3.0 mi ENE 15.0 mph 21.9 mph N/A   Overcast
4:14 PM 41.5 °F 33.5 °F 40.3 °F 95% 29.97 in 3.0 mi ENE 16.1 mph - N/A   Light Drizzle
4:35 PM 41.4 °F 33.3 °F 40.1 °F 95% 29.96 in 2.5 mi ENE 16.1 mph 23.0 mph N/A Rain Rain
4:55 PM 41.5 °F 34.2 °F 40.3 °F 95% 29.96 in 3.0 mi East 13.8 mph 24.2 mph N/A   Overcast
5:15 PM 41.9 °F 34.6 °F 40.5 °F 95% 29.94 in 2.5 mi East 13.8 mph 20.7 mph N/A   Overcast
5:35 PM 42.8 °F 35.4 °F 41.5 °F 95% 29.93 in 2.5 mi East 15.0 mph 23.0 mph N/A   Overcast
5:54 PM 43.0 °F 36.0 °F 41.9 °F 96% 29.94 in 2.0 mi East 13.8 mph 17.3 mph N/A   Overcast
6:15 PM 43.3 °F 37.7 °F 42.3 °F 96% 29.94 in 1.8 mi East 10.4 mph 16.1 mph N/A   Light Drizzle
6:35 PM 43.2 °F 37.4 °F 42.1 °F 96% 29.94 in 1.8 mi East 10.4 mph - N/A Rain Light Rain
6:54 PM 43.9 °F 37.9 °F 42.8 °F 96% 29.94 in 1.8 mi East 11.5 mph - N/A Rain Light Rain
7:15 PM 45.1 °F 39.1 °F 43.9 °F 95% 29.93 in 2.0 mi ENE 12.7 mph - N/A   Overcast
7:35 PM 45.1 °F 39.1 °F 43.9 °F 95% 29.93 in 2.0 mi East 12.7 mph - N/A   Overcast
7:54 PM 45.1 °F 40.3 °F 43.9 °F 95% 29.93 in 2.0 mi ENE 9.2 mph - N/A   Overcast
8:15 PM 45.5 °F 41.8 °F 44.2 °F 95% 29.93 in 2.0 mi ENE 6.9 mph - N/A   Overcast
8:35 PM 45.1 °F 40.8 °F 43.9 °F 95% 29.92 in 2.0 mi ENE 8.1 mph - N/A   Mostly Cloudy
8:54 PM 45.1 °F 40.8 °F 43.9 °F 95% 29.91 in 2.0 mi ENE 8.1 mph - N/A   Clear
9:15 PM 45.1 °F 40.8 °F 43.9 °F 95% 29.90 in 2.0 mi ENE 8.1 mph - N/A   Clear
9:35 PM 47.5 °F - 46.2 °F 95% 29.89 in 2.5 mi NE 5.8 mph - N/A   Mostly Cloudy
9:55 PM 47.3 °F - 46.0 °F 95% 29.88 in 2.5 mi ENE 8.1 mph - N/A   Scattered Clouds
10:34 PM 47.7 °F - 45.9 °F 93% 29.87 in 3.0 mi ENE 6.9 mph - N/A   Clear
11:15 PM 47.7 °F - 46.0 °F 94% 29.87 in 3.0 mi ENE 6.9 mph - N/A   Clear
11:34 PM 46.9 °F - 45.3 °F 94% 29.86 in 3.0 mi East 4.6 mph - N/A   Clear
11:55 PM 47.7 °F - 46.0 °F 94% 29.86 in 3.0 mi East 3.5 mph - N/A   Clear